Weather History for Thermal, CA

Change the Weather History Date:

Saturday, June 7, 2014

  Actual Average Record
Temperature  
Mean Temperature 92 °F 83 °F  
Max Temperature 106 °F 101 °F 117 °F (1973)
Min Temperature 77 °F 66 °F 52 °F (1999)
Degree Days  
Heating Degree Days 0 0  
Month to date heating degree days 0 0  
Since 1 June heating degree days 0 0  
Since 1 July heating degree days 821 1181  
Cooling Degree Days 27 18  
Month to date cooling degree days 176 123  
Year to date cooling degree days 998 796  
Since 1 June cooling degree days 176 123  
Growing Degree Days 41 (Base 50)    
Moisture  
Dew Point 43 °F    
Average Humidity 23    
Maximum Humidity 39    
Minimum Humidity 7    
Precipitation  
Precipitation 0.00 in 0.00 in 0.41 in (1972)
Month to date precipitation 0.00 0.01  
Year to date precipitation 0.08 1.81  
Since 1 July precipitation 1.55 3.19  
Snow  
Snow 0.00 in - - ()
Month to date snowfall 0.0  
Year to date snowfall 0.0  
Since 1 July snowfall 0.0  
Snow Depth 0.00 in    
Sea Level Pressure  
Sea Level Pressure 29.59 in    
Wind  
Wind Speed 9 mph (NW)    
Max Wind Speed 21 mph    
Max Gust Speed 28 mph    
Visibility 10 miles    
Events      
T = Trace of Precipitation, MM = Missing Value Source: NWS Daily Summary

Daily Weather History Graph

Daily Weather History Graph

Search for Another Location

Airport:

Trip Planner

Search our weather history database for the weather conditions in past years. The results will help you decide how hot, cold, wet, or windy it might be!

Date:

Astronomy

Jun. 07, 2014 Rise Set
Actual Time 5:34 AM PDT 7:53 PM PDT
Civil Twilight 5:05 AM PDT 8:21 PM PDT
Nautical Twilight 4:30 AM PDT 8:57 PM PDT
Astronomical Twilight 3:51 AM PDT 9:35 PM PDT
Moon 2:29 PM PDT (6/7) 1:42 AM PDT (6/7)
Length of Visible Light 15h 16m
Length of Day
14h 19m
Waxing Gibbous, 69% of the Moon is Illuminated
Jun 7
Waxing Gibbous
Jun 12
Full
Jun 19
Last Quarter
Jun 27
New
Jul 5
First Quarter

Hourly Weather History & Observations

Time (PDT) Temp. Dew Point Humidity Pressure Visibility Wind Dir Wind Speed Gust Speed Precip Events Conditions
12:52 AM 82.0 °F 46.0 °F 28% 29.58 in 8.0 mi NW 12.7 mph 23.0 mph N/A   Clear
2:52 AM 81.0 °F 48.0 °F 31% 29.59 in 8.0 mi NW 17.3 mph 27.6 mph N/A   Clear
3:52 AM 80.1 °F 48.9 °F 34% 29.59 in 9.0 mi NW 15.0 mph - N/A   Clear
5:52 AM 77.0 °F 50.0 °F 39% 29.61 in 10.0 mi NW 11.5 mph - N/A   Clear
6:52 AM 79.0 °F 50.0 °F 36% 29.63 in 10.0 mi NW 9.2 mph - N/A   Clear
8:52 AM 88.0 °F 46.9 °F 24% 29.65 in 10.0 mi NNW 3.5 mph - N/A   Clear
9:52 AM 91.9 °F 44.1 °F 19% 29.64 in 10.0 mi Variable 3.5 mph - N/A   Clear
10:52 AM 96.1 °F 39.9 °F 14% 29.63 in 10.0 mi Variable 4.6 mph - N/A   Clear
11:52 AM 99.0 °F 37.9 °F 12% 29.62 in 10.0 mi Variable 3.5 mph - N/A   Clear
12:52 PM 100.0 °F 41.0 °F 13% 29.60 in 10.0 mi Variable 3.5 mph - N/A   Clear
1:52 PM 102.9 °F 33.1 °F 9% 29.58 in 10.0 mi SSE 10.4 mph - N/A   Clear
2:52 PM 105.1 °F 32.0 °F 8% 29.56 in 10.0 mi South 9.2 mph - N/A   Clear
3:52 PM 105.1 °F 28.0 °F 7% 29.55 in 10.0 mi ESE 6.9 mph - N/A   Clear
4:52 PM 105.1 °F 30.9 °F 8% 29.53 in 10.0 mi SE 4.6 mph - N/A   Clear
5:52 PM 104.0 °F 33.1 °F 9% 29.53 in 10.0 mi South 6.9 mph - N/A   Clear
6:52 PM 100.9 °F 37.0 °F 11% 29.54 in 10.0 mi South 3.5 mph - N/A   Clear
7:52 PM 96.1 °F 46.9 °F 19% 29.55 in 10.0 mi NNW 9.2 mph - N/A   Clear
8:52 PM 93.9 °F 50.0 °F 22% 29.57 in 10.0 mi NNW 11.5 mph 18.4 mph N/A   Clear
9:52 PM 91.9 °F 48.9 °F 23% 29.59 in 10.0 mi NNW 11.5 mph - N/A   Clear
10:52 PM 88.0 °F 51.1 °F 28% 29.59 in 10.0 mi NW 12.7 mph - N/A   Clear
11:52 PM 87.1 °F 51.1 °F 29% 29.59 in 10.0 mi NW 11.5 mph - N/A   Clear